Weather in Lukino

Russia / Tambov Oblast     52°14′12″N   42°06′22″E
temp.,
°C
wind,
m/s
gust,
m/s
humid.,
%
clouds,
%
prec.,
mm/h
press.,
hPa
HPBL,
m
8 august, mon
mon800:00+20se22405 0.0 101817
03:00+19sse234415 0.0 101820
06:00+20ene224855 0.0 101918
09:00+27ese22315 0.0 1019504
12:00+32ene222139 0.0 10193488
15:00+30ne222583 0.0 1018944
18:00+28n472999 0.0 1018229
21:00+26ene493280 0.0 1019173
9 august, tue
tue900:00+22ese334191 0.0 101940
03:00+20sse33505 0.0 101932
06:00+20sse23505 0.0 101960
09:00+28s343193 0.0 1019598
12:00+32ssw332330 0.0 10182591
15:00+33sw221926 0.0 10173390
18:00+32nnw122350 0.0 1016520
21:00+26ese3634100 0.0 1017125
10 august, wed
wed1000:00+23sse333981 0.0 101734
03:00+21sw114373 0.0 101711
06:00+20ne225098 0.0 101834
09:00+28sw122941 0.0 1018607
12:00+33w232272 0.0 10172530
15:00+33nnw5423100 0.0 10162842
18:00+31nne5529100 0.0 10161297
21:00+23nne4855100 0.0 1018196
11 august, thu
thu1100:00+21ne61364100 0.0 1019389
03:00+20nne71275100 0.0 1019389
06:00+19ne51179100 0.1 1020373
09:00+23ne7857100 0.1 1021646
12:00+27ne663999 0.0 10211134
15:00+29ne553283 0.1 10201517
18:00+28ene55325 0.0 10201469
21:00+21ne410482 0.0 1022178
12 august, fri
fri1200:00+18ene410550 0.0 1022181
03:00+17ene48640 0.0 1023133
06:00+17ene37663 0.0 1024183
09:00+24e44400 0.0 1024671
12:00+28ne32305 0.0 10231561
15:00+30n43256 0.0 10212119
18:00+29n43250 0.0 10211009
21:00+21nne49400 0.0 1022125